Time,TemperatureF,DewpointF,PressureIn,WindDirection,WindDirectionDegrees,WindSpeedMPH,WindSpeedGustMPH,Humidity,HourlyPrecipIn,Conditions,Clouds,dailyrainin,SoftwareType,DateUTC
2013-07-24 00:00:00,78.3,68.9,29.48,North,-999,-999.0,-999.0,73,-99.99,,,-99.99,meteohub,2013-07-24 04:00:00,
2013-07-24 00:01:00,78.1,68.7,29.48,North,-999,-999.0,-999.0,73,-99.99,,,-99.99,meteohub,2013-07-24 04:01:00,
2013-07-24 00:02:00,78.1,68.7,29.48,North,-999,-999.0,-999.0,73,-99.99,,,-99.99,meteohub,2013-07-24 04:02:00,
2013-07-24 00:07:00,78.1,68.7,29.48,North,-999,-999.0,-999.0,73,-99.99,,,-99.99,meteohub,2013-07-24 04:07:00,
2013-07-24 00:12:00,78.1,69.1,29.48,North,-999,-999.0,-999.0,74,-99.99,,,-99.99,meteohub,2013-07-24 04:12:00,
2013-07-24 00:17:00,77.9,68.9,29.48,North,-999,-999.0,-999.0,74,-99.99,,,-99.99,meteohub,2013-07-24 04:17:00,
2013-07-24 00:22:00,77.9,68.9,29.48,North,-999,-999.0,-999.0,74,-99.99,,,-99.99,meteohub,2013-07-24 04:22:00,
2013-07-24 00:28:00,77.7,68.7,29.48,North,-999,-999.0,-999.0,74,-99.99,,,-99.99,meteohub,2013-07-24 04:28:00,
2013-07-24 00:33:00,77.5,68.5,29.48,North,-999,-999.0,-999.0,74,-99.99,,,-99.99,meteohub,2013-07-24 04:33:00,
2013-07-24 00:38:00,77.5,68.5,29.48,North,-999,-999.0,-999.0,74,-99.99,,,-99.99,meteohub,2013-07-24 04:38:00,
2013-07-24 00:43:00,77.4,68.4,29.48,North,-999,-999.0,-999.0,74,-99.99,,,-99.99,meteohub,2013-07-24 04:43:00,
2013-07-24 00:48:00,77.4,68.9,29.48,North,-999,-999.0,-999.0,75,-99.99,,,-99.99,meteohub,2013-07-24 04:48:00,
2013-07-24 00:53:00,77.2,68.7,29.48,North,-999,-999.0,-999.0,75,-99.99,,,-99.99,meteohub,2013-07-24 04:53:00,
2013-07-24 00:58:00,77.2,68.7,29.48,North,-999,-999.0,-999.0,75,-99.99,,,-99.99,meteohub,2013-07-24 04:58:00,
2013-07-24 01:04:00,77.0,68.9,29.48,North,-999,-999.0,-999.0,76,-99.99,,,-99.99,meteohub,2013-07-24 05:04:00,
2013-07-24 01:09:00,76.8,68.7,29.48,North,-999,-999.0,-999.0,76,-99.99,,,-99.99,meteohub,2013-07-24 05:09:00,
2013-07-24 01:14:00,76.8,68.7,29.48,North,-999,-999.0,-999.0,76,-99.99,,,-99.99,meteohub,2013-07-24 05:14:00,
2013-07-24 01:19:00,76.6,68.9,29.48,North,-999,-999.0,-999.0,77,-99.99,,,-99.99,meteohub,2013-07-24 05:19:00,
2013-07-24 01:24:00,76.6,68.9,29.48,North,-999,-999.0,-999.0,77,-99.99,,,-99.99,meteohub,2013-07-24 05:24:00,
2013-07-24 01:29:00,76.5,68.7,29.48,North,-999,-999.0,-999.0,77,-99.99,,,-99.99,meteohub,2013-07-24 05:29:00,
2013-07-24 01:34:00,76.5,68.7,29.48,North,-999,-999.0,-999.0,77,-99.99,,,-99.99,meteohub,2013-07-24 05:34:00,
2013-07-24 01:39:00,76.5,68.7,29.48,North,-999,-999.0,-999.0,77,-99.99,,,-99.99,meteohub,2013-07-24 05:39:00,
2013-07-24 01:44:00,76.3,68.9,29.48,North,-999,-999.0,-999.0,78,-99.99,,,-99.99,meteohub,2013-07-24 05:44:00,
2013-07-24 01:50:00,76.3,68.9,29.48,North,-999,-999.0,-999.0,78,-99.99,,,-99.99,meteohub,2013-07-24 05:50:00,
2013-07-24 01:55:00,76.3,68.9,29.48,North,-999,-999.0,-999.0,78,-99.99,,,-99.99,meteohub,2013-07-24 05:55:00,
2013-07-24 02:00:00,76.3,68.9,29.48,North,-999,-999.0,-999.0,78,-99.99,,,-99.99,meteohub,2013-07-24 06:00:00,
2013-07-24 02:05:00,76.1,68.7,29.48,North,-999,-999.0,-999.0,78,-99.99,,,-99.99,meteohub,2013-07-24 06:05:00,
2013-07-24 02:10:00,76.1,68.7,29.48,North,-999,-999.0,-999.0,78,-99.99,,,-99.99,meteohub,2013-07-24 06:10:00,
2013-07-24 02:15:00,76.1,68.7,29.48,North,-999,-999.0,-999.0,78,-99.99,,,-99.99,meteohub,2013-07-24 06:15:00,
2013-07-24 02:20:00,76.1,68.7,29.48,North,-999,-999.0,-999.0,78,-99.99,,,-99.99,meteohub,2013-07-24 06:20:00,
2013-07-24 02:25:00,75.9,68.9,29.48,North,-999,-999.0,-999.0,79,-99.99,,,-99.99,meteohub,2013-07-24 06:25:00,
2013-07-24 02:31:00,75.9,68.9,29.48,North,-999,-999.0,-999.0,79,-99.99,,,-99.99,meteohub,2013-07-24 06:31:00,
2013-07-24 02:36:00,75.9,68.9,29.45,North,-999,-999.0,-999.0,79,-99.99,,,-99.99,meteohub,2013-07-24 06:36:00,
2013-07-24 02:41:00,75.9,68.9,29.45,North,-999,-999.0,-999.0,79,-99.99,,,-99.99,meteohub,2013-07-24 06:41:00,
2013-07-24 02:46:00,75.7,68.7,29.45,North,-999,-999.0,-999.0,79,-99.99,,,-99.99,meteohub,2013-07-24 06:46:00,
2013-07-24 02:51:00,75.6,68.5,29.45,North,-999,-999.0,-999.0,79,-99.99,,,-99.99,meteohub,2013-07-24 06:51:00,
2013-07-24 02:57:00,75.6,68.5,29.45,North,-999,-999.0,-999.0,79,-99.99,,,-99.99,meteohub,2013-07-24 06:57:00,
2013-07-24 03:02:00,75.4,68.4,29.45,North,-999,-999.0,-999.0,79,-99.99,,,-99.99,meteohub,2013-07-24 07:02:00,
2013-07-24 03:07:00,75.4,68.4,29.45,North,-999,-999.0,-999.0,79,-99.99,,,-99.99,meteohub,2013-07-24 07:07:00,
2013-07-24 03:12:00,75.2,68.2,29.45,North,-999,-999.0,-999.0,79,-99.99,,,-99.99,meteohub,2013-07-24 07:12:00,
2013-07-24 03:17:00,75.0,68.4,29.45,North,-999,-999.0,-999.0,80,-99.99,,,-99.99,meteohub,2013-07-24 07:17:00,
2013-07-24 03:22:00,75.0,68.4,29.45,North,-999,-999.0,-999.0,80,-99.99,,,-99.99,meteohub,2013-07-24 07:22:00,
2013-07-24 03:27:00,74.8,68.2,29.45,North,-999,-999.0,-999.0,80,-99.99,,,-99.99,meteohub,2013-07-24 07:27:00,
2013-07-24 03:32:00,74.5,67.8,29.45,North,-999,-999.0,-999.0,80,-99.99,,,-99.99,meteohub,2013-07-24 07:32:00,
2013-07-24 03:37:00,74.1,68.0,29.45,North,-999,-999.0,-999.0,81,-99.99,,,-99.99,meteohub,2013-07-24 07:37:00,
2013-07-24 03:42:00,74.1,68.0,29.45,North,-999,-999.0,-999.0,81,-99.99,,,-99.99,meteohub,2013-07-24 07:42:00,
2013-07-24 03:48:00,73.9,67.8,29.45,North,-999,-999.0,-999.0,81,-99.99,,,-99.99,meteohub,2013-07-24 07:48:00,
2013-07-24 03:53:00,73.8,68.0,29.45,North,-999,-999.0,-999.0,82,-99.99,,,-99.99,meteohub,2013-07-24 07:53:00,
2013-07-24 03:58:00,73.8,68.0,29.45,North,-999,-999.0,-999.0,82,-99.99,,,-99.99,meteohub,2013-07-24 07:58:00,
2013-07-24 04:03:00,73.8,68.4,29.45,North,-999,-999.0,-999.0,83,-99.99,,,-99.99,meteohub,2013-07-24 08:03:00,
2013-07-24 04:08:00,73.6,68.2,29.45,North,-999,-999.0,-999.0,83,-99.99,,,-99.99,meteohub,2013-07-24 08:08:00,
2013-07-24 04:13:00,73.2,68.2,29.45,North,-999,-999.0,-999.0,84,-99.99,,,-99.99,meteohub,2013-07-24 08:13:00,
2013-07-24 04:19:00,73.4,68.2,29.45,North,-999,-999.0,-999.0,84,-99.99,,,-99.99,meteohub,2013-07-24 08:19:00,
2013-07-24 04:24:00,73.2,68.2,29.45,North,-999,-999.0,-999.0,84,-99.99,,,-99.99,meteohub,2013-07-24 08:24:00,
2013-07-24 04:29:00,73.2,68.2,29.45,North,-999,-999.0,-999.0,84,-99.99,,,-99.99,meteohub,2013-07-24 08:29:00,
2013-07-24 04:34:00,73.2,68.4,29.45,North,-999,-999.0,-999.0,85,-99.99,,,-99.99,meteohub,2013-07-24 08:34:00,
2013-07-24 04:39:00,73.2,68.4,29.45,North,-999,-999.0,-999.0,85,-99.99,,,-99.99,meteohub,2013-07-24 08:39:00,
2013-07-24 04:44:00,73.0,68.2,29.45,North,-999,-999.0,-999.0,85,-99.99,,,-99.99,meteohub,2013-07-24 08:44:00,
2013-07-24 04:50:00,72.9,68.0,29.45,North,-999,-999.0,-999.0,85,-99.99,,,-99.99,meteohub,2013-07-24 08:50:00,
2013-07-24 04:55:00,72.9,68.0,29.45,North,-999,-999.0,-999.0,85,-99.99,,,-99.99,meteohub,2013-07-24 08:55:00,
2013-07-24 05:00:00,72.9,68.4,29.45,North,-999,-999.0,-999.0,86,-99.99,,,-99.99,meteohub,2013-07-24 09:00:00,
2013-07-24 05:05:00,72.9,68.4,29.45,North,-999,-999.0,-999.0,86,-99.99,,,-99.99,meteohub,2013-07-24 09:05:00,
2013-07-24 05:10:00,72.5,68.0,29.45,North,-999,-999.0,-999.0,86,-99.99,,,-99.99,meteohub,2013-07-24 09:10:00,
2013-07-24 05:16:00,72.5,68.0,29.45,North,-999,-999.0,-999.0,86,-99.99,,,-99.99,meteohub,2013-07-24 09:16:00,
2013-07-24 05:21:00,72.5,68.0,29.45,North,-999,-999.0,-999.0,86,-99.99,,,-99.99,meteohub,2013-07-24 09:21:00,
2013-07-24 05:26:00,72.3,67.8,29.45,North,-999,-999.0,-999.0,86,-99.99,,,-99.99,meteohub,2013-07-24 09:26:00,
2013-07-24 05:31:00,72.1,67.6,29.45,North,-999,-999.0,-999.0,86,-99.99,,,-99.99,meteohub,2013-07-24 09:31:00,
2013-07-24 05:36:00,72.1,67.6,29.45,North,-999,-999.0,-999.0,86,-99.99,,,-99.99,meteohub,2013-07-24 09:36:00,
2013-07-24 05:41:00,72.1,68.0,29.45,North,-999,-999.0,-999.0,87,-99.99,,,-99.99,meteohub,2013-07-24 09:41:00,
2013-07-24 05:47:00,72.0,67.8,29.45,North,-999,-999.0,-999.0,87,-99.99,,,-99.99,meteohub,2013-07-24 09:47:00,
2013-07-24 05:52:00,72.0,67.8,29.45,North,-999,-999.0,-999.0,87,-99.99,,,-99.99,meteohub,2013-07-24 09:52:00,
2013-07-24 05:57:00,72.0,67.8,29.45,North,-999,-999.0,-999.0,87,-99.99,,,-99.99,meteohub,2013-07-24 09:57:00,
2013-07-24 06:02:00,71.8,67.6,29.45,North,-999,-999.0,-999.0,87,-99.99,,,-99.99,meteohub,2013-07-24 10:02:00,
2013-07-24 06:07:00,71.8,67.6,29.48,North,-999,-999.0,-999.0,87,-99.99,,,-99.99,meteohub,2013-07-24 10:07:00,
2013-07-24 06:12:00,71.6,67.5,29.48,North,-999,-999.0,-999.0,87,-99.99,,,-99.99,meteohub,2013-07-24 10:12:00,
2013-07-24 06:17:00,71.6,67.5,29.48,North,-999,-999.0,-999.0,87,-99.99,,,-99.99,meteohub,2013-07-24 10:17:00,
2013-07-24 06:22:00,71.6,67.5,29.45,North,-999,-999.0,-999.0,87,-99.99,,,-99.99,meteohub,2013-07-24 10:22:00,
2013-07-24 06:27:00,71.4,67.6,29.45,North,-999,-999.0,-999.0,88,-99.99,,,-99.99,meteohub,2013-07-24 10:27:00,
2013-07-24 06:32:00,71.4,67.6,29.45,North,-999,-999.0,-999.0,88,-99.99,,,-99.99,meteohub,2013-07-24 10:32:00,
2013-07-24 06:37:00,71.4,67.6,29.48,North,-999,-999.0,-999.0,88,-99.99,,,-99.99,meteohub,2013-07-24 10:37:00,
2013-07-24 06:42:00,71.4,67.6,29.48,North,-999,-999.0,-999.0,88,-99.99,,,-99.99,meteohub,2013-07-24 10:42:00,
2013-07-24 06:47:00,71.2,67.5,29.48,North,-999,-999.0,-999.0,88,-99.99,,,-99.99,meteohub,2013-07-24 10:47:00,
2013-07-24 06:52:00,71.4,67.6,29.48,North,-999,-999.0,-999.0,88,-99.99,,,-99.99,meteohub,2013-07-24 10:52:00,
2013-07-24 06:57:00,71.4,68.0,29.48,North,-999,-999.0,-999.0,89,-99.99,,,-99.99,meteohub,2013-07-24 10:57:00,
2013-07-24 07:02:00,71.4,68.0,29.48,North,-999,-999.0,-999.0,89,-99.99,,,-99.99,meteohub,2013-07-24 11:02:00,
2013-07-24 07:07:00,71.4,68.0,29.48,North,-999,-999.0,-999.0,89,-99.99,,,-99.99,meteohub,2013-07-24 11:07:00,
2013-07-24 07:12:00,71.4,68.0,29.48,North,-999,-999.0,-999.0,89,-99.99,,,-99.99,meteohub,2013-07-24 11:12:00,
2013-07-24 07:17:00,71.6,68.2,29.48,North,-999,-999.0,-999.0,89,-99.99,,,-99.99,meteohub,2013-07-24 11:17:00,
2013-07-24 07:22:00,71.8,68.4,29.48,North,-999,-999.0,-999.0,89,-99.99,,,-99.99,meteohub,2013-07-24 11:22:00,
2013-07-24 07:27:00,72.0,68.9,29.48,North,-999,-999.0,-999.0,90,-99.99,,,-99.99,meteohub,2013-07-24 11:27:00,
2013-07-24 07:32:00,72.1,69.1,29.48,North,-999,-999.0,-999.0,90,-99.99,,,-99.99,meteohub,2013-07-24 11:32:00,
2013-07-24 07:37:00,72.5,69.4,29.48,North,-999,-999.0,-999.0,90,-99.99,,,-99.99,meteohub,2013-07-24 11:37:00,
2013-07-24 07:43:00,72.7,69.6,29.48,North,-999,-999.0,-999.0,90,-99.99,,,-99.99,meteohub,2013-07-24 11:43:00,
2013-07-24 07:48:00,73.0,70.0,29.48,North,-999,-999.0,-999.0,90,-99.99,,,-99.99,meteohub,2013-07-24 11:48:00,
2013-07-24 07:53:00,73.2,69.8,29.48,North,-999,-999.0,-999.0,89,-99.99,,,-99.99,meteohub,2013-07-24 11:53:00,
2013-07-24 07:58:00,73.4,70.0,29.48,North,-999,-999.0,-999.0,89,-99.99,,,-99.99,meteohub,2013-07-24 11:58:00,
2013-07-24 08:03:00,73.9,70.2,29.51,North,-999,-999.0,-999.0,88,-99.99,,,-99.99,meteohub,2013-07-24 12:03:00,
2013-07-24 08:08:00,74.1,70.3,29.51,North,-999,-999.0,-999.0,88,-99.99,,,-99.99,meteohub,2013-07-24 12:08:00,
2013-07-24 08:14:00,74.5,70.7,29.51,North,-999,-999.0,-999.0,88,-99.99,,,-99.99,meteohub,2013-07-24 12:14:00,
2013-07-24 08:19:00,74.7,70.5,29.51,North,-999,-999.0,-999.0,87,-99.99,,,-99.99,meteohub,2013-07-24 12:19:00,
2013-07-24 08:24:00,75.0,70.5,29.51,North,-999,-999.0,-999.0,86,-99.99,,,-99.99,meteohub,2013-07-24 12:24:00,
2013-07-24 08:29:00,75.4,70.5,29.51,North,-999,-999.0,-999.0,85,-99.99,,,-99.99,meteohub,2013-07-24 12:29:00,
2013-07-24 08:34:00,75.7,70.9,29.51,North,-999,-999.0,-999.0,85,-99.99,,,-99.99,meteohub,2013-07-24 12:34:00,
2013-07-24 08:39:00,76.1,70.9,29.51,North,-999,-999.0,-999.0,84,-99.99,,,-99.99,meteohub,2013-07-24 12:39:00,
2013-07-24 08:45:00,76.3,70.7,29.51,North,-999,-999.0,-999.0,83,-99.99,,,-99.99,meteohub,2013-07-24 12:45:00,
2013-07-24 08:50:00,76.5,70.5,29.51,North,-999,-999.0,-999.0,82,-99.99,,,-99.99,meteohub,2013-07-24 12:50:00,
2013-07-24 08:55:00,77.0,70.3,29.51,North,-999,-999.0,-999.0,80,-99.99,,,-99.99,meteohub,2013-07-24 12:55:00,
2013-07-24 09:00:00,77.0,70.0,29.51,North,-999,-999.0,-999.0,79,-99.99,,,-99.99,meteohub,2013-07-24 13:00:00,
2013-07-24 09:05:00,77.5,70.5,29.54,North,-999,-999.0,-999.0,79,-99.99,,,-99.99,meteohub,2013-07-24 13:05:00,
2013-07-24 09:10:00,77.5,70.2,29.54,North,-999,-999.0,-999.0,78,-99.99,,,-99.99,meteohub,2013-07-24 13:10:00,
2013-07-24 09:15:00,77.7,70.3,29.54,North,-999,-999.0,-999.0,78,-99.99,,,-99.99,meteohub,2013-07-24 13:15:00,
2013-07-24 09:21:00,77.9,70.5,29.54,North,-999,-999.0,-999.0,78,-99.99,,,-99.99,meteohub,2013-07-24 13:21:00,
2013-07-24 09:26:00,78.1,70.7,29.54,North,-999,-999.0,-999.0,78,-99.99,,,-99.99,meteohub,2013-07-24 13:26:00,
2013-07-24 09:31:00,78.4,70.2,29.54,North,-999,-999.0,-999.0,76,-99.99,,,-99.99,meteohub,2013-07-24 13:31:00,
2013-07-24 09:36:00,78.6,70.3,29.51,North,-999,-999.0,-999.0,76,-99.99,,,-99.99,meteohub,2013-07-24 13:36:00,
2013-07-24 09:41:00,78.8,70.2,29.51,North,-999,-999.0,-999.0,75,-99.99,,,-99.99,meteohub,2013-07-24 13:41:00,
2013-07-24 09:46:00,79.3,70.0,29.51,North,-999,-999.0,-999.0,73,-99.99,,,-99.99,meteohub,2013-07-24 13:46:00,
2013-07-24 09:52:00,79.5,70.2,29.51,North,-999,-999.0,-999.0,73,-99.99,,,-99.99,meteohub,2013-07-24 13:52:00,
2013-07-24 09:57:00,79.7,70.3,29.51,North,-999,-999.0,-999.0,73,-99.99,,,-99.99,meteohub,2013-07-24 13:57:00,
2013-07-24 10:02:00,79.9,70.0,29.51,North,-999,-999.0,-999.0,72,-99.99,,,-99.99,meteohub,2013-07-24 14:02:00,
2013-07-24 10:07:00,80.1,69.8,29.51,North,-999,-999.0,-999.0,71,-99.99,,,-99.99,meteohub,2013-07-24 14:07:00,
2013-07-24 10:12:00,80.2,70.0,29.51,North,-999,-999.0,-999.0,71,-99.99,,,-99.99,meteohub,2013-07-24 14:12:00,
2013-07-24 10:17:00,80.4,70.2,29.51,North,-999,-999.0,-999.0,71,-99.99,,,-99.99,meteohub,2013-07-24 14:17:00,
2013-07-24 10:22:00,81.0,69.8,29.51,North,-999,-999.0,-999.0,69,-99.99,,,-99.99,meteohub,2013-07-24 14:22:00,
2013-07-24 10:27:00,81.3,70.2,29.51,North,-999,-999.0,-999.0,69,-99.99,,,-99.99,meteohub,2013-07-24 14:27:00,
2013-07-24 10:32:00,81.3,69.8,29.51,North,-999,-999.0,-999.0,68,-99.99,,,-99.99,meteohub,2013-07-24 14:32:00,
2013-07-24 10:37:00,81.9,69.4,29.54,North,-999,-999.0,-999.0,66,-99.99,,,-99.99,meteohub,2013-07-24 14:37:00,
2013-07-24 10:42:00,82.4,70.3,29.54,North,-999,-999.0,-999.0,67,-99.99,,,-99.99,meteohub,2013-07-24 14:42:00,
2013-07-24 10:47:00,82.6,70.0,29.54,North,-999,-999.0,-999.0,66,-99.99,,,-99.99,meteohub,2013-07-24 14:47:00,
2013-07-24 10:52:00,82.6,70.0,29.51,North,-999,-999.0,-999.0,66,-99.99,,,-99.99,meteohub,2013-07-24 14:52:00,
2013-07-24 10:57:00,82.8,70.2,29.51,North,-999,-999.0,-999.0,66,-99.99,,,-99.99,meteohub,2013-07-24 14:57:00,
2013-07-24 11:02:00,83.1,69.6,29.51,North,-999,-999.0,-999.0,64,-99.99,,,-99.99,meteohub,2013-07-24 15:02:00,
2013-07-24 11:07:00,83.5,70.0,29.51,North,-999,-999.0,-999.0,64,-99.99,,,-99.99,meteohub,2013-07-24 15:07:00,
2013-07-24 11:12:00,83.7,69.8,29.51,North,-999,-999.0,-999.0,63,-99.99,,,-99.99,meteohub,2013-07-24 15:12:00,
2013-07-24 11:17:00,84.0,70.0,29.51,North,-999,-999.0,-999.0,63,-99.99,,,-99.99,meteohub,2013-07-24 15:17:00,
2013-07-24 11:22:00,84.2,69.8,29.51,North,-999,-999.0,-999.0,62,-99.99,,,-99.99,meteohub,2013-07-24 15:22:00,
2013-07-24 11:27:00,84.7,69.3,29.51,North,-999,-999.0,-999.0,60,-99.99,,,-99.99,meteohub,2013-07-24 15:27:00,
2013-07-24 11:32:00,85.5,68.9,29.51,North,-999,-999.0,-999.0,58,-99.99,,,-99.99,meteohub,2013-07-24 15:32:00,
2013-07-24 11:37:00,85.8,69.8,29.51,North,-999,-999.0,-999.0,59,-99.99,,,-99.99,meteohub,2013-07-24 15:37:00,
2013-07-24 11:42:00,86.2,68.7,29.51,North,-999,-999.0,-999.0,56,-99.99,,,-99.99,meteohub,2013-07-24 15:42:00,
2013-07-24 11:47:00,86.4,68.4,29.51,North,-999,-999.0,-999.0,55,-99.99,,,-99.99,meteohub,2013-07-24 15:47:00,
2013-07-24 11:52:00,87.3,66.4,29.54,North,-999,-999.0,-999.0,50,-99.99,,,-99.99,meteohub,2013-07-24 15:52:00,
2013-07-24 11:57:00,87.8,68.0,29.54,North,-999,-999.0,-999.0,52,-99.99,,,-99.99,meteohub,2013-07-24 15:57:00,
2013-07-24 12:03:00,88.3,67.3,29.54,North,-999,-999.0,-999.0,50,-99.99,,,-99.99,meteohub,2013-07-24 16:03:00,
2013-07-24 12:08:00,88.9,67.3,29.54,North,-999,-999.0,-999.0,49,-99.99,,,-99.99,meteohub,2013-07-24 16:08:00,
2013-07-24 12:13:00,89.6,68.5,29.54,North,-999,-999.0,-999.0,50,-99.99,,,-99.99,meteohub,2013-07-24 16:13:00,
2013-07-24 12:18:00,90.1,67.1,29.54,North,-999,-999.0,-999.0,47,-99.99,,,-99.99,meteohub,2013-07-24 16:18:00,
2013-07-24 12:23:00,90.7,68.4,29.54,North,-999,-999.0,-999.0,48,-99.99,,,-99.99,meteohub,2013-07-24 16:23:00,
2013-07-24 12:29:00,90.9,67.8,29.54,North,-999,-999.0,-999.0,47,-99.99,,,-99.99,meteohub,2013-07-24 16:29:00,
2013-07-24 12:34:00,89.8,65.7,29.51,North,-999,-999.0,-999.0,45,-99.99,,,-99.99,meteohub,2013-07-24 16:34:00,
2013-07-24 12:39:00,90.5,67.5,29.51,North,-999,-999.0,-999.0,47,-99.99,,,-99.99,meteohub,2013-07-24 16:39:00,
2013-07-24 12:44:00,91.0,68.0,29.51,North,-999,-999.0,-999.0,47,-99.99,,,-99.99,meteohub,2013-07-24 16:44:00,
2013-07-24 12:49:00,91.4,67.6,29.54,North,-999,-999.0,-999.0,46,-99.99,,,-99.99,meteohub,2013-07-24 16:49:00,
2013-07-24 12:54:00,91.0,65.5,29.54,North,-999,-999.0,-999.0,43,-99.99,,,-99.99,meteohub,2013-07-24 16:54:00,
2013-07-24 12:59:00,91.6,67.3,29.54,North,-999,-999.0,-999.0,45,-99.99,,,-99.99,meteohub,2013-07-24 16:59:00,
2013-07-24 13:05:00,91.8,67.5,29.51,North,-999,-999.0,-999.0,45,-99.99,,,-99.99,meteohub,2013-07-24 17:05:00,
2013-07-24 13:10:00,91.9,66.9,29.51,North,-999,-999.0,-999.0,44,-99.99,,,-99.99,meteohub,2013-07-24 17:10:00,
2013-07-24 13:15:00,91.8,65.3,29.51,North,-999,-999.0,-999.0,42,-99.99,,,-99.99,meteohub,2013-07-24 17:15:00,
2013-07-24 13:20:00,91.4,66.4,29.51,North,-999,-999.0,-999.0,44,-99.99,,,-99.99,meteohub,2013-07-24 17:20:00,
2013-07-24 13:25:00,91.2,66.2,29.51,North,-999,-999.0,-999.0,44,-99.99,,,-99.99,meteohub,2013-07-24 17:25:00,
2013-07-24 13:30:00,91.0,64.8,29.51,North,-999,-999.0,-999.0,42,-99.99,,,-99.99,meteohub,2013-07-24 17:30:00,
2013-07-24 13:36:00,91.2,64.9,29.51,North,-999,-999.0,-999.0,42,-99.99,,,-99.99,meteohub,2013-07-24 17:36:00,
2013-07-24 13:41:00,90.5,63.5,29.51,North,-999,-999.0,-999.0,41,-99.99,,,-99.99,meteohub,2013-07-24 17:41:00,
2013-07-24 13:46:00,90.1,64.6,29.51,North,-999,-999.0,-999.0,43,-99.99,,,-99.99,meteohub,2013-07-24 17:46:00,
2013-07-24 13:51:00,89.2,65.1,29.51,North,-999,-999.0,-999.0,45,-99.99,,,-99.99,meteohub,2013-07-24 17:51:00,
2013-07-24 13:56:00,88.5,65.1,29.51,North,-999,-999.0,-999.0,46,-99.99,,,-99.99,meteohub,2013-07-24 17:56:00,
2013-07-24 14:01:00,88.0,64.6,29.51,North,-999,-999.0,-999.0,46,-99.99,,,-99.99,meteohub,2013-07-24 18:01:00,
2013-07-24 14:07:00,88.3,64.9,29.51,North,-999,-999.0,-999.0,46,-99.99,,,-99.99,meteohub,2013-07-24 18:07:00,
2013-07-24 14:12:00,88.0,65.3,29.51,North,-999,-999.0,-999.0,47,-99.99,,,-99.99,meteohub,2013-07-24 18:12:00,
2013-07-24 14:17:00,88.2,65.3,29.51,North,-999,-999.0,-999.0,47,-99.99,,,-99.99,meteohub,2013-07-24 18:17:00,
2013-07-24 14:22:00,89.6,66.7,29.51,North,-999,-999.0,-999.0,47,-99.99,,,-99.99,meteohub,2013-07-24 18:22:00,
2013-07-24 14:27:00,90.5,66.9,29.51,North,-999,-999.0,-999.0,46,-99.99,,,-99.99,meteohub,2013-07-24 18:27:00,
2013-07-24 14:32:00,89.8,66.9,29.51,North,-999,-999.0,-999.0,47,-99.99,,,-99.99,meteohub,2013-07-24 18:32:00,
2013-07-24 14:37:00,90.7,67.1,29.51,North,-999,-999.0,-999.0,46,-99.99,,,-99.99,meteohub,2013-07-24 18:37:00,
2013-07-24 14:42:00,91.0,66.0,29.51,North,-999,-999.0,-999.0,44,-99.99,,,-99.99,meteohub,2013-07-24 18:42:00,
2013-07-24 14:48:00,90.9,65.8,29.51,North,-999,-999.0,-999.0,44,-99.99,,,-99.99,meteohub,2013-07-24 18:48:00,
2013-07-24 14:53:00,91.6,66.6,29.51,North,-999,-999.0,-999.0,44,-99.99,,,-99.99,meteohub,2013-07-24 18:53:00,
2013-07-24 14:58:00,91.6,65.8,29.51,North,-999,-999.0,-999.0,43,-99.99,,,-99.99,meteohub,2013-07-24 18:58:00,
2013-07-24 15:03:00,90.7,65.1,29.51,North,-999,-999.0,-999.0,43,-99.99,,,-99.99,meteohub,2013-07-24 19:03:00,
2013-07-24 15:08:00,90.3,64.8,29.51,North,-999,-999.0,-999.0,43,-99.99,,,-99.99,meteohub,2013-07-24 19:08:00,
2013-07-24 15:13:00,90.1,64.6,29.51,North,-999,-999.0,-999.0,43,-99.99,,,-99.99,meteohub,2013-07-24 19:13:00,
2013-07-24 15:19:00,89.4,65.3,29.51,North,-999,-999.0,-999.0,45,-99.99,,,-99.99,meteohub,2013-07-24 19:19:00,
2013-07-24 15:24:00,88.9,64.8,29.51,North,-999,-999.0,-999.0,45,-99.99,,,-99.99,meteohub,2013-07-24 19:24:00,
2013-07-24 15:29:00,90.1,65.8,29.51,North,-999,-999.0,-999.0,45,-99.99,,,-99.99,meteohub,2013-07-24 19:29:00,
2013-07-24 15:34:00,89.6,66.0,29.51,North,-999,-999.0,-999.0,46,-99.99,,,-99.99,meteohub,2013-07-24 19:34:00,
2013-07-24 15:39:00,89.6,66.0,29.51,North,-999,-999.0,-999.0,46,-99.99,,,-99.99,meteohub,2013-07-24 19:39:00,
2013-07-24 15:44:00,90.0,66.4,29.51,North,-999,-999.0,-999.0,46,-99.99,,,-99.99,meteohub,2013-07-24 19:44:00,
2013-07-24 15:50:00,90.5,66.2,29.51,North,-999,-999.0,-999.0,45,-99.99,,,-99.99,meteohub,2013-07-24 19:50:00,
2013-07-24 15:55:00,90.0,65.8,29.51,North,-999,-999.0,-999.0,45,-99.99,,,-99.99,meteohub,2013-07-24 19:55:00,
2013-07-24 16:00:00,90.0,65.8,29.51,North,-999,-999.0,-999.0,45,-99.99,,,-99.99,meteohub,2013-07-24 20:00:00,
2013-07-24 16:05:00,90.1,65.8,29.51,North,-999,-999.0,-999.0,45,-99.99,,,-99.99,meteohub,2013-07-24 20:05:00,
2013-07-24 16:11:00,90.1,65.8,29.51,North,-999,-999.0,-999.0,45,-99.99,,,-99.99,meteohub,2013-07-24 20:11:00,
2013-07-24 16:16:00,90.1,65.3,29.51,North,-999,-999.0,-999.0,44,-99.99,,,-99.99,meteohub,2013-07-24 20:16:00,
2013-07-24 16:21:00,89.8,65.7,29.51,North,-999,-999.0,-999.0,45,-99.99,,,-99.99,meteohub,2013-07-24 20:21:00,
2013-07-24 16:26:00,90.5,64.9,29.51,North,-999,-999.0,-999.0,43,-99.99,,,-99.99,meteohub,2013-07-24 20:26:00,
2013-07-24 16:31:00,90.9,65.3,29.51,North,-999,-999.0,-999.0,43,-99.99,,,-99.99,meteohub,2013-07-24 20:31:00,
2013-07-24 16:37:00,90.7,65.8,29.51,North,-999,-999.0,-999.0,44,-99.99,,,-99.99,meteohub,2013-07-24 20:37:00,
2013-07-24 16:42:00,90.7,63.0,29.51,North,-999,-999.0,-999.0,40,-99.99,,,-99.99,meteohub,2013-07-24 20:42:00,
2013-07-24 16:47:00,90.9,64.6,29.51,North,-999,-999.0,-999.0,42,-99.99,,,-99.99,meteohub,2013-07-24 20:47:00,
2013-07-24 16:52:00,90.5,64.2,29.51,North,-999,-999.0,-999.0,42,-99.99,,,-99.99,meteohub,2013-07-24 20:52:00,
2013-07-24 16:57:00,90.3,62.8,29.51,North,-999,-999.0,-999.0,40,-99.99,,,-99.99,meteohub,2013-07-24 20:57:00,
2013-07-24 17:02:00,90.7,63.0,29.51,North,-999,-999.0,-999.0,40,-99.99,,,-99.99,meteohub,2013-07-24 21:02:00,
2013-07-24 17:08:00,90.0,62.4,29.51,North,-999,-999.0,-999.0,40,-99.99,,,-99.99,meteohub,2013-07-24 21:08:00,
2013-07-24 17:13:00,89.6,61.3,29.51,North,-999,-999.0,-999.0,39,-99.99,,,-99.99,meteohub,2013-07-24 21:13:00,
2013-07-24 17:18:00,89.6,62.8,29.51,North,-999,-999.0,-999.0,41,-99.99,,,-99.99,meteohub,2013-07-24 21:18:00,
2013-07-24 17:23:00,89.4,62.6,29.51,North,-999,-999.0,-999.0,41,-99.99,,,-99.99,meteohub,2013-07-24 21:23:00,
2013-07-24 17:28:00,89.6,62.8,29.51,North,-999,-999.0,-999.0,41,-99.99,,,-99.99,meteohub,2013-07-24 21:28:00,
2013-07-24 17:33:00,89.4,63.3,29.51,North,-999,-999.0,-999.0,42,-99.99,,,-99.99,meteohub,2013-07-24 21:33:00,
2013-07-24 17:38:00,88.9,63.5,29.51,North,-999,-999.0,-999.0,43,-99.99,,,-99.99,meteohub,2013-07-24 21:38:00,
2013-07-24 17:44:00,88.9,63.5,29.51,North,-999,-999.0,-999.0,43,-99.99,,,-99.99,meteohub,2013-07-24 21:44:00,
2013-07-24 17:49:00,88.9,62.8,29.48,North,-999,-999.0,-999.0,42,-99.99,,,-99.99,meteohub,2013-07-24 21:49:00,
2013-07-24 17:54:00,89.1,63.7,29.48,North,-999,-999.0,-999.0,43,-99.99,,,-99.99,meteohub,2013-07-24 21:54:00,
2013-07-24 17:59:00,89.1,64.2,29.48,North,-999,-999.0,-999.0,44,-99.99,,,-99.99,meteohub,2013-07-24 21:59:00,
2013-07-24 18:04:00,88.9,64.8,29.48,North,-999,-999.0,-999.0,45,-99.99,,,-99.99,meteohub,2013-07-24 22:04:00,
2013-07-24 18:09:00,88.9,64.8,29.48,North,-999,-999.0,-999.0,45,-99.99,,,-99.99,meteohub,2013-07-24 22:09:00,
2013-07-24 18:15:00,88.7,64.6,29.48,North,-999,-999.0,-999.0,45,-99.99,,,-99.99,meteohub,2013-07-24 22:15:00,
2013-07-24 18:20:00,88.3,64.2,29.48,North,-999,-999.0,-999.0,45,-99.99,,,-99.99,meteohub,2013-07-24 22:20:00,
2013-07-24 18:25:00,88.0,64.6,29.48,North,-999,-999.0,-999.0,46,-99.99,,,-99.99,meteohub,2013-07-24 22:25:00,
2013-07-24 18:30:00,87.6,64.9,29.48,North,-999,-999.0,-999.0,47,-99.99,,,-99.99,meteohub,2013-07-24 22:30:00,
2013-07-24 18:35:00,87.3,65.1,29.48,North,-999,-999.0,-999.0,48,-99.99,,,-99.99,meteohub,2013-07-24 22:35:00,
2013-07-24 18:40:00,86.9,65.5,29.48,North,-999,-999.0,-999.0,49,-99.99,,,-99.99,meteohub,2013-07-24 22:40:00,
2013-07-24 18:45:00,86.7,65.3,29.48,North,-999,-999.0,-999.0,49,-99.99,,,-99.99,meteohub,2013-07-24 22:45:00,
2013-07-24 18:50:00,86.2,64.8,29.51,North,-999,-999.0,-999.0,49,-99.99,,,-99.99,meteohub,2013-07-24 22:50:00,
2013-07-24 18:56:00,85.8,65.7,29.51,North,-999,-999.0,-999.0,51,-99.99,,,-99.99,meteohub,2013-07-24 22:56:00,
2013-07-24 19:01:00,85.5,65.8,29.51,North,-999,-999.0,-999.0,52,-99.99,,,-99.99,meteohub,2013-07-24 23:01:00,
2013-07-24 19:06:00,84.9,65.3,29.51,North,-999,-999.0,-999.0,52,-99.99,,,-99.99,meteohub,2013-07-24 23:06:00,
2013-07-24 19:12:00,84.6,65.5,29.51,North,-999,-999.0,-999.0,53,-99.99,,,-99.99,meteohub,2013-07-24 23:12:00,
2013-07-24 19:17:00,83.8,64.9,29.51,North,-999,-999.0,-999.0,53,-99.99,,,-99.99,meteohub,2013-07-24 23:17:00,
2013-07-24 19:22:00,83.5,64.6,29.51,North,-999,-999.0,-999.0,53,-99.99,,,-99.99,meteohub,2013-07-24 23:22:00,
2013-07-24 19:27:00,83.3,64.4,29.51,North,-999,-999.0,-999.0,53,-99.99,,,-99.99,meteohub,2013-07-24 23:27:00,
2013-07-24 19:32:00,82.9,64.0,29.51,North,-999,-999.0,-999.0,53,-99.99,,,-99.99,meteohub,2013-07-24 23:32:00,
2013-07-24 19:37:00,82.9,64.0,29.51,North,-999,-999.0,-999.0,53,-99.99,,,-99.99,meteohub,2013-07-24 23:37:00,
2013-07-24 19:42:00,82.6,64.2,29.51,North,-999,-999.0,-999.0,54,-99.99,,,-99.99,meteohub,2013-07-24 23:42:00,
2013-07-24 19:48:00,82.4,64.6,29.51,North,-999,-999.0,-999.0,55,-99.99,,,-99.99,meteohub,2013-07-24 23:48:00,
2013-07-24 19:53:00,82.4,64.6,29.51,North,-999,-999.0,-999.0,55,-99.99,,,-99.99,meteohub,2013-07-24 23:53:00,
2013-07-24 19:58:00,82.0,65.3,29.51,North,-999,-999.0,-999.0,57,-99.99,,,-99.99,meteohub,2013-07-24 23:58:00,
2013-07-24 20:03:00,82.0,65.3,29.51,North,-999,-999.0,-999.0,57,-99.99,,,-99.99,meteohub,2013-07-25 00:03:00,
2013-07-24 20:08:00,81.9,65.7,29.51,North,-999,-999.0,-999.0,58,-99.99,,,-99.99,meteohub,2013-07-25 00:08:00,
2013-07-24 20:13:00,81.9,65.7,29.51,North,-999,-999.0,-999.0,58,-99.99,,,-99.99,meteohub,2013-07-25 00:13:00,
2013-07-24 20:19:00,81.9,66.2,29.54,North,-999,-999.0,-999.0,59,-99.99,,,-99.99,meteohub,2013-07-25 00:19:00,
2013-07-24 20:24:00,81.7,66.0,29.54,North,-999,-999.0,-999.0,59,-99.99,,,-99.99,meteohub,2013-07-25 00:24:00,
2013-07-24 20:29:00,81.7,66.0,29.54,North,-999,-999.0,-999.0,59,-99.99,,,-99.99,meteohub,2013-07-25 00:29:00,
2013-07-24 20:34:00,81.5,65.8,29.51,North,-999,-999.0,-999.0,59,-99.99,,,-99.99,meteohub,2013-07-25 00:34:00,
2013-07-24 20:39:00,81.3,65.7,29.51,North,-999,-999.0,-999.0,59,-99.99,,,-99.99,meteohub,2013-07-25 00:39:00,
2013-07-24 20:44:00,81.1,65.5,29.51,North,-999,-999.0,-999.0,59,-99.99,,,-99.99,meteohub,2013-07-25 00:44:00,
2013-07-24 20:49:00,81.0,65.3,29.51,North,-999,-999.0,-999.0,59,-99.99,,,-99.99,meteohub,2013-07-25 00:49:00,
2013-07-24 20:55:00,81.0,65.3,29.51,North,-999,-999.0,-999.0,59,-99.99,,,-99.99,meteohub,2013-07-25 00:55:00,
2013-07-24 21:00:00,81.0,65.3,29.51,North,-999,-999.0,-999.0,59,-99.99,,,-99.99,meteohub,2013-07-25 01:00:00,
2013-07-24 21:05:00,80.8,65.7,29.54,North,-999,-999.0,-999.0,60,-99.99,,,-99.99,meteohub,2013-07-25 01:05:00,
2013-07-24 21:10:00,80.4,65.3,29.54,North,-999,-999.0,-999.0,60,-99.99,,,-99.99,meteohub,2013-07-25 01:10:00,
2013-07-24 21:15:00,80.2,65.5,29.54,North,-999,-999.0,-999.0,61,-99.99,,,-99.99,meteohub,2013-07-25 01:15:00,
2013-07-24 21:21:00,80.1,65.5,29.54,North,-999,-999.0,-999.0,61,-99.99,,,-99.99,meteohub,2013-07-25 01:21:00,
2013-07-24 21:26:00,80.2,66.0,29.54,North,-999,-999.0,-999.0,62,-99.99,,,-99.99,meteohub,2013-07-25 01:26:00,
2013-07-24 21:31:00,80.1,65.5,29.54,North,-999,-999.0,-999.0,61,-99.99,,,-99.99,meteohub,2013-07-25 01:31:00,
2013-07-24 21:37:00,80.1,65.8,29.54,North,-999,-999.0,-999.0,62,-99.99,,,-99.99,meteohub,2013-07-25 01:37:00,
2013-07-24 21:42:00,80.1,65.8,29.54,North,-999,-999.0,-999.0,62,-99.99,,,-99.99,meteohub,2013-07-25 01:42:00,
2013-07-24 21:47:00,79.9,65.7,29.54,North,-999,-999.0,-999.0,62,-99.99,,,-99.99,meteohub,2013-07-25 01:47:00,
2013-07-24 21:52:00,79.9,65.7,29.54,North,-999,-999.0,-999.0,62,-99.99,,,-99.99,meteohub,2013-07-25 01:52:00,
2013-07-24 21:57:00,79.7,65.5,29.54,North,-999,-999.0,-999.0,62,-99.99,,,-99.99,meteohub,2013-07-25 01:57:00,
2013-07-24 22:02:00,79.5,65.8,29.54,North,-999,-999.0,-999.0,63,-99.99,,,-99.99,meteohub,2013-07-25 02:02:00,
2013-07-24 22:07:00,79.3,65.7,29.54,North,-999,-999.0,-999.0,63,-99.99,,,-99.99,meteohub,2013-07-25 02:07:00,
2013-07-24 22:12:00,79.3,65.7,29.54,North,-999,-999.0,-999.0,63,-99.99,,,-99.99,meteohub,2013-07-25 02:12:00,
2013-07-24 22:17:00,79.2,65.8,29.54,North,-999,-999.0,-999.0,64,-99.99,,,-99.99,meteohub,2013-07-25 02:17:00,
2013-07-24 22:22:00,78.8,65.7,29.54,North,-999,-999.0,-999.0,64,-99.99,,,-99.99,meteohub,2013-07-25 02:22:00,
2013-07-24 22:28:00,78.6,65.5,29.54,North,-999,-999.0,-999.0,64,-99.99,,,-99.99,meteohub,2013-07-25 02:28:00,
2013-07-24 22:33:00,78.6,65.8,29.54,North,-999,-999.0,-999.0,65,-99.99,,,-99.99,meteohub,2013-07-25 02:33:00,
2013-07-24 22:38:00,78.4,65.7,29.54,North,-999,-999.0,-999.0,65,-99.99,,,-99.99,meteohub,2013-07-25 02:38:00,
2013-07-24 22:43:00,78.4,65.7,29.54,North,-999,-999.0,-999.0,65,-99.99,,,-99.99,meteohub,2013-07-25 02:43:00,
2013-07-24 22:49:00,78.4,65.7,29.57,North,-999,-999.0,-999.0,65,-99.99,,,-99.99,meteohub,2013-07-25 02:49:00,
2013-07-24 22:54:00,78.4,65.7,29.57,North,-999,-999.0,-999.0,65,-99.99,,,-99.99,meteohub,2013-07-25 02:54:00,
2013-07-24 22:59:00,78.4,66.2,29.57,North,-999,-999.0,-999.0,66,-99.99,,,-99.99,meteohub,2013-07-25 02:59:00,
2013-07-24 23:04:00,78.3,66.0,29.57,North,-999,-999.0,-999.0,66,-99.99,,,-99.99,meteohub,2013-07-25 03:04:00,
2013-07-24 23:09:00,78.1,65.8,29.57,North,-999,-999.0,-999.0,66,-99.99,,,-99.99,meteohub,2013-07-25 03:09:00,
2013-07-24 23:14:00,77.9,66.0,29.57,North,-999,-999.0,-999.0,67,-99.99,,,-99.99,meteohub,2013-07-25 03:14:00,
2013-07-24 23:22:00,77.7,66.4,29.57,North,-999,-999.0,-999.0,68,-99.99,,,-99.99,meteohub,2013-07-25 03:22:00,
2013-07-24 23:27:00,77.2,66.2,29.57,North,-999,-999.0,-999.0,69,-99.99,,,-99.99,meteohub,2013-07-25 03:27:00,
2013-07-24 23:32:00,76.1,66.4,29.57,North,-999,-999.0,-999.0,72,-99.99,,,-99.99,meteohub,2013-07-25 03:32:00,
2013-07-24 23:37:00,75.4,66.2,29.54,North,-999,-999.0,-999.0,73,-99.99,,,-99.99,meteohub,2013-07-25 03:37:00,
2013-07-24 23:42:00,75.0,66.6,29.54,North,-999,-999.0,-999.0,75,-99.99,,,-99.99,meteohub,2013-07-25 03:42:00,
2013-07-24 23:47:00,74.8,66.7,29.54,North,-999,-999.0,-999.0,76,-99.99,,,-99.99,meteohub,2013-07-25 03:47:00,
2013-07-24 23:52:00,74.5,67.8,29.57,North,-999,-999.0,-999.0,80,-99.99,,,-99.99,meteohub,2013-07-25 03:52:00,
2013-07-24 23:57:00,74.3,67.3,29.57,North,-999,-999.0,-999.0,79,-99.99,,,-99.99,meteohub,2013-07-25 03:57:00,